ITY620 LIRF-KLAX

Flight info

Callsign ITY620
Flight time N/A
Altitude 36000
Route NEMBO DCT GOVGO DCT TESTO DCT AOSTA DCT ORSUD DCT MOLUS DCT IBODI DCT GOTED DCT TRO DCT CLM DCT KOPOR DCT VESAN DCT RATUK DCT SOVAT DCT OKSAW DCT TEWXI DCT LIPGO DCT KLY DCT ENULA DCT PIKIL/M085F380 DCT 5630N02000W 5730N03000W 5830N04000W 5930N05000W DCT URTAK/N0495F380 DCT LAKES DCT 57N070W 55N080W/N0494F400 5230N09000W DCT KP18A DCT KU06W DCT KD87U DCT KU54O DCT NORRA J107 BLD DCT HAKMN ANJLL4
Aircraft A359/H-SDE2E3GHIJ3J4J5LM1ORWXY/LB1D1

Departure

Time N/A
Airport Rome–Fiumicino Leonardo da Vinci International Airport (LIRF)

Arrival

Time 2026-05-06 14:40
Airport Los Angeles International Airport (KLAX)
Time Latitude Longitude Altitude Speed Heading
2026-05-06 14:07 35.43297 -115.17704 40061 ft 492 kts 229°
2026-05-06 14:08 35.38638 -115.23819 40059 ft 489 kts 229°
2026-05-06 14:08 35.33981 -115.29896 40077 ft 488 kts 228°
2026-05-06 14:09 35.29353 -115.35916 40076 ft 489 kts 228°
2026-05-06 14:09 35.24671 -115.41993 40088 ft 491 kts 228°
2026-05-06 14:10 35.19980 -115.48068 40085 ft 491 kts 228°
2026-05-06 14:10 35.15282 -115.54144 40088 ft 491 kts 228°
2026-05-06 14:11 35.10585 -115.60208 40086 ft 491 kts 228°
2026-05-06 14:11 35.06633 -115.65257 40079 ft 490 kts 228°
2026-05-06 14:12 35.01936 -115.71249 40077 ft 492 kts 228°
2026-05-06 14:12 34.99569 -115.74268 39887 ft 494 kts 228°
2026-05-06 14:12 34.97186 -115.77305 39651 ft 497 kts 227°
2026-05-06 14:13 34.94789 -115.80357 39411 ft 499 kts 227°
2026-05-06 14:13 34.92388 -115.83411 39196 ft 500 kts 227°
2026-05-06 14:13 34.89989 -115.86462 38981 ft 501 kts 227°
2026-05-06 14:13 34.88059 -115.88913 38770 ft 501 kts 227°
2026-05-06 14:14 34.85818 -115.91755 38251 ft 499 kts 227°
2026-05-06 14:14 34.83407 -115.94813 37593 ft 498 kts 227°
2026-05-06 14:14 34.81008 -115.97852 36929 ft 498 kts 227°
2026-05-06 14:14 34.78603 -116.00897 36274 ft 499 kts 227°
2026-05-06 14:15 34.76193 -116.03951 35572 ft 501 kts 227°
2026-05-06 14:15 34.73809 -116.06991 35010 ft 501 kts 227°
2026-05-06 14:15 34.71409 -116.10051 34495 ft 500 kts 227°
2026-05-06 14:15 34.69005 -116.13113 33955 ft 499 kts 227°
2026-05-06 14:16 34.66613 -116.16155 33378 ft 497 kts 227°
2026-05-06 14:16 34.64223 -116.19192 32856 ft 494 kts 227°
2026-05-06 14:16 34.61854 -116.22199 32333 ft 492 kts 227°
2026-05-06 14:16 34.59495 -116.25191 31823 ft 490 kts 227°
2026-05-06 14:17 34.57137 -116.28180 31304 ft 487 kts 227°
2026-05-06 14:17 34.54787 -116.31156 30801 ft 485 kts 226°
2026-05-06 14:17 34.52491 -116.34060 30292 ft 483 kts 226°
2026-05-06 14:17 34.50171 -116.36992 29747 ft 480 kts 226°
2026-05-06 14:18 34.47859 -116.39911 29202 ft 476 kts 226°
2026-05-06 14:18 34.45573 -116.42796 28700 ft 472 kts 226°
2026-05-06 14:18 34.43320 -116.45666 28189 ft 469 kts 228°
2026-05-06 14:18 34.41333 -116.48779 27555 ft 465 kts 239°
2026-05-06 14:19 34.39764 -116.52228 26701 ft 469 kts 246°
2026-05-06 14:19 34.38316 -116.55776 25982 ft 470 kts 246°
2026-05-06 14:19 34.36870 -116.59331 25400 ft 468 kts 246°
2026-05-06 14:19 34.35457 -116.62783 24880 ft 458 kts 246°
2026-05-06 14:20 34.34039 -116.66229 24405 ft 446 kts 246°
2026-05-06 14:20 34.32682 -116.69537 24018 ft 433 kts 247°
2026-05-06 14:20 34.31392 -116.72753 23491 ft 425 kts 247°
2026-05-06 14:20 34.30115 -116.75947 22989 ft 417 kts 247°
2026-05-06 14:21 34.28851 -116.79101 22525 ft 413 kts 247°
2026-05-06 14:21 34.27600 -116.82215 22057 ft 410 kts 247°
2026-05-06 14:21 34.26359 -116.85297 21611 ft 406 kts 247°
2026-05-06 14:21 34.25122 -116.88365 21155 ft 403 kts 247°
2026-05-06 14:22 34.23897 -116.91398 20718 ft 400 kts 246°
2026-05-06 14:22 34.22692 -116.94380 20273 ft 398 kts 246°
2026-05-06 14:22 34.21490 -116.97381 19826 ft 395 kts 248°
2026-05-06 14:22 34.20512 -117.00462 19416 ft 391 kts 254°
2026-05-06 14:23 34.19667 -117.03573 18957 ft 388 kts 255°
2026-05-06 14:23 34.18839 -117.06665 18528 ft 386 kts 255°
2026-05-06 14:23 34.18012 -117.09746 17999 ft 384 kts 255°
2026-05-06 14:23 34.17185 -117.12811 17483 ft 381 kts 255°
2026-05-06 14:24 34.16366 -117.15834 17045 ft 377 kts 255°
2026-05-06 14:24 34.15560 -117.18790 16690 ft 374 kts 254°
2026-05-06 14:24 34.14741 -117.21759 16270 ft 370 kts 254°
2026-05-06 14:24 34.13930 -117.24697 15846 ft 367 kts 254°
2026-05-06 14:25 34.13124 -117.27618 15422 ft 365 kts 254°
2026-05-06 14:25 34.12324 -117.30518 15005 ft 363 kts 254°
2026-05-06 14:25 34.11529 -117.33397 14581 ft 360 kts 254°
2026-05-06 14:25 34.10739 -117.36256 14183 ft 359 kts 254°
2026-05-06 14:26 34.09964 -117.39126 13810 ft 359 kts 256°
2026-05-06 14:26 34.09248 -117.42003 13296 ft 355 kts 256°
2026-05-06 14:26 34.08559 -117.44804 13089 ft 343 kts 256°
2026-05-06 14:26 34.07888 -117.47515 12718 ft 338 kts 256°
2026-05-06 14:27 34.07215 -117.50224 12352 ft 335 kts 256°
2026-05-06 14:27 34.06545 -117.52900 11971 ft 331 kts 255°
2026-05-06 14:27 34.05866 -117.55554 11611 ft 328 kts 255°
2026-05-06 14:27 34.05203 -117.58142 11248 ft 325 kts 255°
2026-05-06 14:28 34.04539 -117.60733 10884 ft 323 kts 255°
2026-05-06 14:28 34.03877 -117.63315 10525 ft 320 kts 255°
2026-05-06 14:28 34.03221 -117.65875 10171 ft 318 kts 255°
2026-05-06 14:28 34.02578 -117.68383 10025 ft 308 kts 254°
2026-05-06 14:29 34.02105 -117.70874 9992 ft 304 kts 263°
2026-05-06 14:29 34.01833 -117.73400 9733 ft 303 kts 265°
2026-05-06 14:29 34.01595 -117.75935 9271 ft 303 kts 265°
2026-05-06 14:29 34.01363 -117.78406 9007 ft 295 kts 265°
2026-05-06 14:30 34.01132 -117.80817 8824 ft 284 kts 265°
2026-05-06 14:30 34.00907 -117.83128 8628 ft 270 kts 265°
2026-05-06 14:30 34.00697 -117.85309 8374 ft 254 kts 265°
2026-05-06 14:30 34.00496 -117.87389 7953 ft 248 kts 265°
2026-05-06 14:31 34.00290 -117.89509 7325 ft 261 kts 265°
2026-05-06 14:31 34.00075 -117.91702 6834 ft 264 kts 264°
2026-05-06 14:31 33.99861 -117.93894 6483 ft 262 kts 264°
2026-05-06 14:31 33.99650 -117.96036 6228 ft 256 kts 264°
2026-05-06 14:32 33.99444 -117.98108 6187 ft 241 kts 264°
2026-05-06 14:32 33.99253 -118.00059 6168 ft 226 kts 265°
2026-05-06 14:32 33.99087 -118.01865 6174 ft 208 kts 265°
2026-05-06 14:32 33.98933 -118.03531 6121 ft 193 kts 265°
2026-05-06 14:33 33.98787 -118.05110 5978 ft 188 kts 265°
2026-05-06 14:33 33.98634 -118.06633 5751 ft 183 kts 264°
2026-05-06 14:33 33.98477 -118.08145 5445 ft 181 kts 265°
2026-05-06 14:33 33.98324 -118.09652 5165 ft 180 kts 265°
2026-05-06 14:34 33.98172 -118.11148 4890 ft 178 kts 265°
2026-05-06 14:34 33.98021 -118.12619 4636 ft 175 kts 265°
2026-05-06 14:34 33.97875 -118.14057 4392 ft 171 kts 265°
2026-05-06 14:34 33.97732 -118.15459 4165 ft 166 kts 265°
2026-05-06 14:35 33.97596 -118.16799 3955 ft 160 kts 265°
2026-05-06 14:35 33.97462 -118.18109 3753 ft 154 kts 265°
2026-05-06 14:35 33.97334 -118.19363 3560 ft 147 kts 265°
2026-05-06 14:35 33.97212 -118.20563 3371 ft 142 kts 264°
2026-05-06 14:36 33.97093 -118.21736 3186 ft 141 kts 264°
2026-05-06 14:36 33.96973 -118.22909 2997 ft 141 kts 264°
2026-05-06 14:36 33.96853 -118.24085 2811 ft 142 kts 264°
2026-05-06 14:36 33.96733 -118.25267 2617 ft 142 kts 264°
2026-05-06 14:37 33.96614 -118.26434 2430 ft 142 kts 264°
2026-05-06 14:37 33.96493 -118.27618 2237 ft 142 kts 263°
2026-05-06 14:37 33.96372 -118.28804 2040 ft 143 kts 263°
2026-05-06 14:37 33.96251 -118.29987 1841 ft 142 kts 263°
2026-05-06 14:38 33.96131 -118.31165 1666 ft 142 kts 263°
2026-05-06 14:38 33.96011 -118.32342 1462 ft 140 kts 263°
2026-05-06 14:38 33.95893 -118.33501 1271 ft 139 kts 263°
2026-05-06 14:38 33.95776 -118.34653 1087 ft 138 kts 263°
2026-05-06 14:39 33.95660 -118.35801 912 ft 138 kts 263°
2026-05-06 14:39 33.95545 -118.36948 709 ft 138 kts 263°
2026-05-06 14:39 33.95431 -118.38077 533 ft 137 kts 263°
2026-05-06 14:39 33.95313 -118.39219 348 ft 137 kts 263°
2026-05-06 14:40 33.95196 -118.40360 173 ft 136 kts 263°
2026-05-06 14:40 33.95083 -118.41433 129 ft 106 kts 264°
2026-05-06 14:40 33.95027 -118.42009 132 ft 31 kts 263°
2026-05-06 14:40 33.95011 -118.42175 128 ft 23 kts 263°
2026-05-06 14:41 33.94980 -118.42409 125 ft 32 kts 259°
2026-05-06 14:41 33.94874 -118.42652 121 ft 33 kts 229°
2026-05-06 14:41 33.94708 -118.42777 124 ft 23 kts 189°
2026-05-06 14:41 33.94638 -118.42700 129 ft 13 kts 88°
2026-05-06 14:42 33.94648 -118.42584 127 ft 15 kts 84°
2026-05-06 14:42 33.94659 -118.42443 129 ft 18 kts 84°
2026-05-06 14:42 33.94678 -118.42286 132 ft 20 kts 82°
2026-05-06 14:42 33.94696 -118.42111 132 ft 22 kts 83°
2026-05-06 14:43 33.94716 -118.41916 129 ft 24 kts 83°
2026-05-06 14:43 33.94738 -118.41705 132 ft 26 kts 83°
2026-05-06 14:43 33.94760 -118.41494 123 ft 15 kts 83°
2026-05-06 14:43 33.94782 -118.41375 130 ft 16 kts 75°
2026-05-06 14:44 33.94768 -118.41304 123 ft 6 kts 145°
2026-05-06 14:44 33.94705 -118.41288 128 ft 13 kts 172°
2026-05-06 14:44 33.94596 -118.41269 128 ft 19 kts 173°
2026-05-06 14:45 33.94272 -118.41219 127 ft 27 kts 174°
2026-05-06 14:45 33.94181 -118.41195 127 ft 5 kts 135°
2026-05-06 14:45 33.94175 -118.41129 124 ft 11 kts 86°
2026-05-06 14:45 33.94176 -118.41115 128 ft 0 kts 85°
2026-05-06 14:46 33.94177 -118.41106 129 ft 0 kts 85°